Regional Weather Roundup
Issued by NWS

Home | Current Version | Previous Version | Text Only | Print | Product List | Glossary On
Versions: 1 2 3 4 5 6 7 8 9 10 11 12 13 14 15 16 17 18 19 20 21 22 23 24 25 26 27 28 29 30 31 32 33 34 35 36 37 38 39 40 41 42 43 44 45 46 47 48 49 50
000
ASUS45 KBOU 211507
RWRCO

WEATHER ROUNDUP FOR COLORADO
NATIONAL WEATHER SERVICE DENVER/BOULDER CO
800 AM MST SUN DEC 21 2014

NOTE: "FAIR" INDICATES FEW OR NO CLOUDS BELOW 12000 FEET WITH NO
SIGNIFICANT WEATHER AND/OR OBSTRUCTIONS TO VISIBILITY.

COZ001>005-013-030-031-211600-
...NORTHWEST COLORADO...

CITY           SKY/WX    TMP DP  RH WIND       PRES   REMARKS
CRAIG          CLOUDY    33  28  81 VRB3      29.87F
HAYDEN         CLOUDY    25  23  93 NE8       29.85F WCI  16
MEEKER         LGT SNOW  31  28  89 NE5       29.92F VSB 1   WCI  26
MOUNT WERNER   NOT AVBL
STEAMBOAT SPGS CLOUDY    28  26  91 NE5       29.88F WCI  23
WALDEN         CLOUDY    30  23  74 S13G22    29.82F WCI  20
$$

COZ006>008-011-211600-
...WEST CENTRAL VALLEYS...

CITY           SKY/WX    TMP DP  RH WIND       PRES   REMARKS
GRAND JUNCTION LGT SNOW  31  31 100 E3        30.02F FOG
MONTROSE       CLOUDY    29  26  89 SE6       30.06F WCI  23
EAGLE          FLURRIES  28  27  93 CALM      29.97F
RIFLE          SNOW      30  29  96 E3        30.00F VSB 1/2
DELTA          CLOUDY    33  31  91 CALM      30.05F
NUCLA          CLOUDY    30  28  93 CALM      30.09R
$$

COZ017>023-064>068-211600-
...SOUTHWEST COLORADO...

CITY           SKY/WX    TMP DP  RH WIND       PRES   REMARKS
DURANGO        CLOUDY    26  25  96 CALM      30.05R FOG
CORTEZ         CLEAR     27  24  89 CALM      30.07R
PAGOSA SPRINGS CLOUDY    28  27  95 CALM      30.03S
TELLURIDE      CLOUDY    27  23  84 CALM      30.08R
WOLF CREEK PAS PTCLDY    14  12  92 MISG      29.98F
$$

COZ009-010-012-014-032>034-037-058>063-211600-
...CENTRAL COLORADO...

CITY           SKY/WX    TMP DP  RH WIND       PRES   REMARKS
ASPEN          LGT SNOW  23  20  88 N5        29.95F FOG     WCI  17
BUENA VISTA    PTCLDY    33  16  50 W21G30    29.86F WCI  20
COPPER MTN     CLOUDY    19  14  79 W33G40    29.87F WCI   0
BERTHOUD PASS  CLOUDY    12   7  79 MISG      29.78F
COTTONWOOD PAS CLOUDY    30  18  59 N15G25    29.86F WCI  19
GUNNISON       PTCLDY    19  16  86 CALM      30.02S
KREMMLING      MOCLDY    28  23  80 CALM      29.88F
LEADVILLE      LGT SNOW  21  17  84 N12       29.89S FOG     WCI   9
SALIDA         PTCLDY    38  17  41 W16G37    29.93F
SUNLIGHT       HVY SNOW N/A N/A N/A CALM      29.93F VSB<1/4
WILKERSON PASS CLOUDY    19  12  73 W24       29.80F WCI   2
$$

COZ069>075-211600-
...SAN LUIS VALLEY/SANGRE DE CRISTO MOUNTAINS...

CITY           SKY/WX    TMP DP  RH WIND       PRES   REMARKS
ALAMOSA        MOCLDY    12   8  84 SE5       29.97R WCI   4
LA VETA PASS   CLOUDY    21  18  86 S17G29    29.84R WCI   7
SAGUACHE       CLOUDY    28  19  69 S6G16     29.95F WCI  22
$$

COZ035-036-038>040-211600-
...NORTHERN COLORADO FRONT RANGE...

CITY           SKY/WX    TMP DP  RH WIND       PRES   REMARKS
DENVER INTL AP CLOUDY    34  20  56 S13       29.68F WCI  25
DMNS CITY PARK   N/A     34  19  54 S6G13     29.67F WCI  29
AURORA         MOCLDY    35  18  49 S12       29.70F WCI  27
FRONT RANGE AP CLOUDY    34  23  64 S15G21    29.70F WCI  24
ERIE MUNI ARPT   N/A     28  23  79 CALM      29.67F
BOULDER MUN AP MOCLDY    32  21  64 SE5       29.66F WCI  27
CENTENNIAL     CLOUDY    35  18  49 S3        29.70F
BROOMFIELD     NOT AVBL
FORT COLLINS   CLOUDY    23  18  80 N5        29.69F WCI  17
LONGMONT       CLOUDY    29  22  75 CALM      29.68F
$$

COZ041-046-047-076>085-087-088-211600-
...PIKES PEAK/PALMER DIVIDE AND SOUTHERN FOOTHILLS...

CITY           SKY/WX    TMP DP  RH WIND       PRES   REMARKS
COLO. SPRINGS  CLOUDY    32  19  58 VRB5      29.76F WCI  27
A. F. ACADEMY  CLOUDY    29  16  58 CALM      29.74F
ELLICOTT       NOT AVBL
FALCON         CLOUDY    32  16  52 W3        29.76F
FORT CARSON    CLOUDY    31  19  60 NW8       29.75F WCI  23
LIMON          CLOUDY    23  19  85 CALM      29.74F
MONUMENT HILL  CLOUDY    30  18  59 SW8       29.73F WCI  23
TRINIDAD       MOCLDY    33  19  56 W3        29.81R
$$

COZ042>045-048>051-090-091-211600-
...NORTHEAST COLORADO...

CITY           SKY/WX    TMP DP  RH WIND       PRES   REMARKS
GREELEY ARPT   CLOUDY    19  10  68 CALM      29.68F
AKRON          PTCLDY    33  22  63 SW10      29.70F WCI  25
BURLINGTON     CLEAR     29  23  78 W7        29.75F WCI  22
WRAY           CLEAR     25  21  85 SW7       29.73F WCI  17
STERLING       PTCLDY    19  16  86 S8        29.71F WCI   9
HOLYOKE        CLEAR     27  21  80 W7        29.71F WCI  19
FORT MORGAN    PTCLDY    23  18  81 W7        29.71F WCI  15
$$

COZ086-089-092>099-211600-
...SOUTHEAST COLORADO...

CITY           SKY/WX    TMP DP  RH WIND       PRES   REMARKS
PUEBLO         CLOUDY    22  17  81 SW5       29.76F WCI  16
LA JUNTA       MOCLDY    28  22  78 W7        29.78S WCI  21
LAMAR          CLEAR     24  22  91 W5        29.78S WCI  18
SPRINGFIELD      N/A     37  24  59 W12       29.76F
$$


USA.gov is the U.S. government's official web portal to all federal, state and local government web resources and services.